Terminal Aerodrome Forecast
Issued by NWS La Crosse, WI

Home | Current Version | Previous Version | Text Only | Print | Product List | Glossary On
Versions: 1 2 3 4 5 6 7 8 9 10 11 12 13 14 15 16 17 18 19 20 21 22 23
000
FTUS43 KARX 230905 AAA
TAFRST
TAF AMD
KRST 230905Z 2309/2406 11004KT 3SM BR BKN200
      TEMPO 2309/2313 2SM BR
     FM231400 14013KT P6SM SCT025 BKN180
     FM231700 17013G20KT P6SM VCTS SCT030 BKN150CB
     FM232100 17014G22KT P6SM SCT040
     FM240400 17013KT 6SM TSRA BR BKN060CB=

USA.gov is the U.S. government's official web portal to all federal, state and local government web resources and services.